Location: downtown San Diego
(32.7310°N, 117.1990°W)
Time: 18:45:42
(UTC-07:00)

Daily predictions for brighter satellites

Satellite Brightness Start Highest point End
(mag) Time Altitude Azimuth Time Altitude Azimuth Time Altitude Azimuth
Cosmos 1805 Rocket 3.8 19:43:23 10° N 19:47:36 50° E 19:51:47 10° SSE
Cosmos 1939 Rocket 4.5 19:48:30 10° ESE 19:50:59 17° ENE 19:53:29 10° NNE
Envisat 3.4 19:47:40 10° SE 19:52:27 44° ENE 19:57:15 10° N
Cosmos 1980 4.2 19:48:43 10° SSE 19:53:50 36° ESE 19:58:59 10° NE
ERS-2 3.3 19:50:50 10° SE 19:53:53 25° ENE 19:56:57 10° NNE
Cosmos 1455 2.9 19:55:21 10° SSE 19:58:48 33° E 20:02:17 10° NNE
Cosmos 2251 Rocket 3.7 19:54:47 10° N 20:00:03 55° ENE 20:05:16 10° SSE
NOSS 3 (A) 4.4 19:59:08 10° SSW 20:01:52 57° ESE 20:04:39 10° NE
YAOGAN 6 3.9 19:59:19 10° SE 20:02:11 23° ENE 20:05:05 10° NNE
SL-8 R/B 4.1 19:58:59 10° WSW 20:03:43 66° NW 20:08:30 10° NE
Meteor 2-15 4.5 19:58:04 10° N 20:04:08 62° E 20:10:08 10° SSE
CZ-2D R/B 3.3 20:01:13 10° SSE 20:04:56 57° ENE 20:08:40 10° N
Resurs 01 Rocket 2.8 20:03:07 10° SE 20:06:44 25° ENE 20:10:20 10° NNE
Cosmos 2333 Rocket 2.2 20:01:20 10° SSW 20:07:00 83° ESE 20:12:40 10° NNE
Cosmos 2154 Rocket 4.0 20:00:57 10° S 20:07:11 77° E 20:13:25 10° N
Cosmos 1844 Rocket 2.7 20:04:15 10° NNW 20:09:55 73° ENE 20:15:32 10° SSE
Meteor 2-21 4.5 20:05:13 10° S 20:11:20 86° E 20:17:32 10° N
Cosmos 1892 2.9 20:08:21 10° N 20:12:08 48° E 20:15:51 10° SSE
COSMOS 2428 3.8 20:06:39 10° SW 20:12:10 49° WNW 20:17:44 10° N
OAO 2 Rocket 3.4 20:08:34 10° WNW 20:13:50 87° SSW 20:18:01 16° ESE
HJ-1C 3.7 20:10:38 10° S 20:13:57 70° W 20:17:19 10° NNW
Meteor 1-27 4.3 20:09:36 10° S 20:15:15 61° E 20:20:50 10° NNE
Cosmos 2219 Rocket 2.7 20:11:31 10° SSW 20:17:09 67° WNW 20:22:47 10° NNE
NOSS 0 Rocket 3.9 20:13:48 10° SSW 20:19:56 76° ESE 20:26:08 10° NNE
Cosmos 1844 3.7 20:14:34 10° NNW 20:20:16 68° ENE 20:25:53 11° SSE
Cosmos 2237 Rocket 2.2 20:15:19 10° S 20:20:48 60° ESE 20:26:20 10° NNE
Centaur D-1A AC-31 3.3 19:52:45 10° WSW 20:21:13 42° S 20:25:38 17° ESE
deb Centaur AC-2 4.2 20:18:17 10° W 20:22:30 56° S 20:25:32 20° ESE
Genesis I 4.4 20:19:07 10° N 20:22:42 29° NE 20:24:40 20° E
Sakura Rocket 3.4 20:17:40 10° WSW 20:22:45 51° S 20:25:21 20° ESE
Cosmos 220 Rocket 4.5 20:21:47 10° N 20:25:51 41° ENE 20:28:19 21° SE
Aureole 2 4.2 20:24:30 10° SSW 20:27:36 76° WNW 20:30:33 10° NNE
Cosmos 1666 Rocket 3.6 20:24:02 10° N 20:28:31 87° W 20:32:56 10° S
Cosmos 1151 Rocket 3.2 20:24:37 10° SSE 20:28:41 46° E 20:32:46 10° NNE
OAO 3 Copernicus 4.3 20:24:15 10° WSW 20:29:14 66° SSE 20:33:08 16° E
Cosmos 962 Rocket 4.4 20:24:19 10° S 20:30:25 82° E 20:36:36 10° N
Cosmos 2341 Rocket 4.0 20:25:53 10° S 20:32:14 81° E 20:38:35 10° N
Thor Agena Rocket 3.8 20:28:24 10° N 20:33:39 76° WNW 20:38:55 10° SSW
Cosmos 1933 Rocket 4.3 20:30:33 10° NNE 20:34:30 32° E 20:35:57 26° ESE
USA 186 0.6 20:34:32 54° SSE 20:34:56 79° ENE 20:37:11 10° N
Spot 2 Rocket 4.0 20:32:05 20° SE 20:35:12 42° ENE 20:39:58 10° N
Cosmos 2278 Rocket 2.9 20:30:05 10° N 20:35:18 36° ENE 20:38:03 23° ESE
Cosmos 2218 Rocket 4.4 20:29:24 10° SSE 20:35:20 44° E 20:41:19 10° NNE
Sich 1 3.5 20:31:33 10° NNW 20:35:46 62° W 20:39:57 10° S
Cosmos 1295 Rocket 4.5 20:29:53 10° S 20:36:13 85° E 20:42:34 10° N
Resurs 1-3 3.6 20:34:07 18° SSE 20:37:14 59° ENE 20:41:34 10° N
SL-24 R/B - RUBIN 2 4.1 20:34:49 10° NW 20:39:04 56° WSW 20:42:41 14° S
ATLAS 2A CENTAUR R/B 3.6 20:35:13 10° W 20:39:24 20° SSW 20:40:33 17° S
ATLAS 2AS CENTAUR R/B 3.0 20:31:52 10° NNW 20:39:34 61° ENE 20:44:15 23° SE
ASTRO E2 2.9 20:39:41 10° WSW 20:43:34 49° SSE 20:44:45 36° ESE
Cosmos 2366 rocket 4.2 20:39:23 10° SSE 20:45:16 47° E 20:51:13 10° NNE
Cosmos 1825 2.8 20:44:23 10° NNE 20:47:51 34° E 20:47:58 34° E
SL-8 Rocket 3.9 20:47:21 10° S 20:53:39 78° E 20:59:56 10° N
Cosmos 1633 Rocket 4.1 20:55:21 10° NNW 20:59:29 44° W 21:03:36 10° SSW
Cosmos 1515 Rocket 4.3 21:02:38 10° SSW 21:06:59 54° W 21:11:22 10° N
ERS-1 Rocket 4.3 21:10:03 23° ENE 21:10:03 23° ENE 21:13:33 10° NNE
ARGOS 3.7 21:10:53 37° E 21:11:19 37° ENE 21:16:13 10° N
SL-16 R/B 2.1 21:06:15 10° S 21:11:49 64° ESE 21:17:24 10° NNE
Cosmos 2228 Rocket 4.4 21:13:40 10° SSW 21:17:46 39° W 21:21:54 10° N
Cosmos 407 Rocket 4.2 21:13:26 10° N 21:17:56 36° ENE 21:17:56 36° ENE
Meteor 2-10 Rocket 3.6 21:17:22 26° S 21:20:44 83° E 21:26:35 10° N
USA 267 4.0 21:14:59 10° ENE 21:23:21 33° S 21:27:14 10° SSW
Cosmos 1408 3.1 21:19:52 10° NNW 21:23:29 56° W 21:23:34 56° W
USA 81 4.4 21:18:46 10° N 21:23:28 46° ENE 21:23:28 46° ENE
Cosmos 1869 3.9 21:23:04 36° SW 21:24:26 55° W 21:28:23 10° N
Cosmos 864 Rocket 4.4 21:19:24 15° S 21:24:36 83° W 21:30:46 10° N
H-2A R/B 2.7 21:26:31 37° NE 21:26:31 37° NE 21:30:29 10° N
Resurs 01 Rocket 3.7 21:40:41 15° SW 21:43:05 23° W 21:46:37 10° NW
Cosmos 2344 3.4 21:40:22 10° SSW 21:48:08 80° ESE 21:56:03 10° NNE
Cosmos 2297 3.9 21:43:32 10° NNW 21:48:36 57° NE 21:48:36 57° NE
MetOp-A 4.1 21:52:58 81° NW 21:52:58 81° NW 21:58:07 10° NNW
Cosmos 2369 Rocket 4.5 21:51:10 10° NNE 21:52:10 11° NE 21:52:10 11° NE
Cosmos 1821 Rocket 4.2 22:06:44 60° NE 22:06:44 60° NE 22:11:56 10° N
Cosmos 1727 Rocket 4.4 22:02:54 10° NNW 22:08:54 57° W 22:09:41 53° WSW
ATLAS 5 CENTAUR R/B 4.4 22:14:07 10° N 22:17:12 16° NE 22:17:12 16° NE
Cosmos 2278 Rocket 3.9 22:14:37 10° NW 22:19:06 24° W 22:19:56 24° WSW
ATLAS 2AS CENTAUR R/B 4.4 22:24:13 10° WNW 22:29:50 23° WSW 22:31:43 21° SW
ATLAS 2A CENTAUR R/B 4.0 22:37:51 10° WSW 22:50:45 50° SW 22:50:45 50° SW
CZ-4C R/B 4.0 23:00:46 25° NNW 23:00:46 25° NNW 23:03:49 10° NNE
Cosmos 1943 Rocket 4.3 22:57:12 10° N 22:58:56 18° NNE 22:58:56 18° NNE
USA 267 4.1 22:57:54 10° NNE 23:04:03 46° NW 23:05:27 40° WNW
H-2A R/B 4.5 23:07:08 16° WNW 23:07:08 16° WNW 23:08:51 10° NW
Terra 4.4 23:10:21 16° NNW 23:10:21 16° NNW 23:11:22 10° NNW
Cosmos 2369 Rocket 4.4 23:32:13 10° NNW 23:33:58 21° NNW 23:33:58 21° NNW
